STARLINK-34271, 64384

Orbit data source: Space-Track

STARLINK-34271, 64384 is a payload satellite owned by SpaceX/Seattle (US) in LEO that was launched on Fri, 13 Jun 2025 UTC via an FALCON 9 launch vehicle from the Air Force Eastern Test Range (AFETR). Payload-class satellites include a variety of spacecraft equipped with specific instruments for various scientific and technological missions. These include communications satellites like Starlink; space stations such as the ISS; scientific satellites like the Hubble; Earth observation satellites from companies like Planet Labs, Umbra, and HawkEye 360; GPS; miniature CubeSats for education and research; and military/defense satellites.

Loading next visibility...
Identifier
64384, 2025-127Q
Orbit
LEO
Country
Flag of USUS
Related business
Manufacturer
SpaceX/Seattle
Mission
Operational Commercial Communications
Bus & Motor
STARLINK V2MO, Unknown motor
Mass
575 kg wet, ~530 kg dry
Launch date (UTC)
2025-06-13 (10 months ago)
Launch vehicle
FALCON 9
Launch site
Air Force Eastern Test Range (AFETR)
Object type
Payload
Rocket body
Debris
Shape & HBR
Box + 2 Pan, 17.7 m
Radar Cross Section
36.964 m², Large (>1 m²)

Expand to show TLE details & history
Last TLE update: 11 hours ago

TLE from 11 hours ago
0 STARLINK-34271
1 64384U 25127Q   26095.23155551  .00031006  00000-0  11318-2 0  9997
2 64384  43.0021  30.1180 0001564 274.0308  86.0365 15.27571280 46523
Epoch: 2026-04-05T05:33Z
TLE epoch observation values (Epoch: 2026-04-05T05:33:26.396Z)
Latitude
0.00001°
Longitude
113.21808°
Altitude
482.777 km
Speed
7.626 km/s
True Right ascension
02h 00m 28s
True Declination
0° 00' 00"
Sunlit
Object was in daylight at epoch
Visualization orbit readout
Latitude
Unknown
Longitude
Unknown
Altitude
Unknown
Speed
Unknown
Apparent Right ascension
Unknown
Apparent Declination
Unknown
Sunlit
N/A
Visualization observer readout
Local Sidereal Time
22:25:21
Azimuth
Unknown
Elevation
Unknown
Doppler factor
Unknown
Orbital elements
Apogee altitude
486.093 km
Perigee altitude
483.947 km
Semi-major axis
6,863.157 km
Eccentricity
0.00016
Inclination
43.0021°
RAAN
30.118°
Arg. of periapsis
274.0308°
True anomaly
86.05438°
Mean anomaly
86.0365°
Eccentric anomaly
86.04544°
Mean motion
3.81731 °/min
Orbital period
94.31 mins
BSTAR
0.0011318
Loading maneuver chart data...
Computing Atmospheric mass density...
Loading historical data...
Loading historical data...
Loading historical data...
Loading historical data...
Loading historical data...
Loading historical data...
Loading historical data...

Documentation

Showing up to 5 results
|